TIME,�g��[���C[MJ/h],����[MJ/h],�Ɩ�[MJ/h],�~�[[MJ/h],�①��[MJ/h],��y���[MJ/h],�Ǝ��q��[MJ/h],���̑�[MJ/h],�����G�l���M�[[MJ/h]
2003/3/1 0:00,0.0049,0,0.7632,0,0.6119,0.2411,0.3004,1.0585,0
2003/3/1 0:15,0.005,0,0.5157,0,0.9199,0.5047,0.2946,0.8968,0
2003/3/1 0:30,0.0049,0,0.347,0,0.778,0.3853,0.3041,0.9899,0
2003/3/1 0:45,0.005,0,0.0289,0,0.4107,0.1908,0.2108,0.9508,0
2003/3/1 1:00,0.005,0,0,0,0.7307,0.1908,0.3845,0.959,0
2003/3/1 1:15,0.005,0,0,0,0.4326,0.192,0.2124,0.9707,0
2003/3/1 1:30,0.005,0,0,0,0.3361,0.1907,0.392,0.9564,0
2003/3/1 1:45,0.005,0,0,0,0.4432,0.1905,0.2114,0.9543,0
2003/3/1 2:00,0.0052,0,0,0,0.3871,0.1908,0.3804,1.02,0
2003/3/1 2:15,0.005,0,0,0,0.6839,0.1912,0.2144,0.9713,0
2003/3/1 2:30,0.0052,0,0,0,0.2838,0.1915,0.3882,0.9431,0
2003/3/1 2:45,0.0049,0,0,0,0.4401,0.1895,0.211,0.9554,0
2003/3/1 3:00,0.005,0,0,0,0.2953,0.1899,0.3021,0.9603,0
2003/3/1 3:15,0.005,0,0,0,0.4883,0.1904,0.3,0.9854,0
2003/3/1 3:30,0.005,0,0,0,0.5818,0.1886,0.3041,0.9978,0
2003/3/1 3:45,0.0049,0,0.0007,0,0.2879,0.1889,0.2985,0.9605,0
2003/3/1 4:00,0.005,0,0.0009,0,0.4841,0.1886,0.303,0.9384,0
2003/3/1 4:15,0.0049,0,0.0003,0,0.3082,0.1888,0.3024,0.9392,0
2003/3/1 4:30,0.0049,0,0.0024,0,0.6188,0.1885,0.2992,1.011,0
2003/3/1 4:45,0.005,0,0.0048,0,0.3623,0.1889,0.3014,0.9387,0
2003/3/1 5:00,0.0049,0,0.0071,0,0.2871,0.1879,0.3056,0.9301,0
2003/3/1 5:15,0.0049,0,0.0099,0,0.5278,0.1878,0.3051,0.9372,0
2003/3/1 5:30,0.0049,0,0.0153,0,0.3973,0.1875,0.3072,1.0081,0
2003/3/1 5:45,0.005,0,0.0156,0,0.5401,0.1866,0.2799,0.9079,0
2003/3/1 6:00,0.0049,0,0.0163,0,0.1211,0.1902,0.337,0.9428,0
2003/3/1 6:15,0.0052,0,0.0242,0,0.696,0.1907,0.22,0.9521,0
2003/3/1 6:30,0.005,0,0.1326,0,0.3308,0.2657,0.4075,1.1172,0
2003/3/1 6:45,0.0049,0,0.526,0,0.468,0.5341,0.3475,1.9181,0
2003/3/1 7:00,0.0048,0,0.418,1.0692,0.362,0.5784,0.4738,5.7529,0
2003/3/1 7:15,0.0049,0,0.4326,0,0.4982,0.5544,0.3158,1.6898,0
2003/3/1 7:30,0.0048,0,0.5456,0,0.6228,0.5669,0.687,1.3359,0
2003/3/1 7:45,0.005,0,0.4745,0,0.129,0.5809,1.0032,2.407,0
2003/3/1 8:00,0.2498,0,1.3088,0,0.6143,0.8063,0.294,1.111,0
2003/3/1 8:15,1.8851,0,0.156,0,0.3344,2.517,0.4028,-0.8076,0
2003/3/1 8:30,1.2165,0,1.0917,0,0.5597,1.8272,0.2648,-0.2177,0
2003/3/1 8:45,0.8686,0,0.0111,0,0.2177,1.4563,0.3565,0.3177,0
2003/3/1 9:00,0.9426,0,0.1339,0,0.4108,1.4373,0.5026,0.2039,0
2003/3/1 9:15,0.6883,0,0.0996,0,0.5498,0.8971,0.2223,0.6385,0
2003/3/1 9:30,0.0049,0,0.0035,0,0.3391,0.1895,0.452,0.9769,0
2003/3/1 9:45,0.005,0,0,0,0.4234,0.1884,0.3187,0.9606,0
2003/3/1 10:00,0.0049,0,0,0,0.2796,0.1872,0.3204,0.9609,0
2003/3/1 10:15,0.005,0,0,0,0.6777,0.1892,0.4032,1.0492,0
2003/3/1 10:30,0.005,0,0,0,0.3309,0.1904,0.2239,0.9768,0
2003/3/1 10:45,0.005,0,0.0003,0,0.3518,0.1907,0.4055,0.9343,0
2003/3/1 11:00,0.0052,0,0.0006,0,0.4169,0.1911,0.3118,0.9683,0
2003/3/1 11:15,0.0052,0,0,0,0.4546,0.1928,0.3158,1.0557,0
2003/3/1 11:30,0.0052,0,0.0003,0,0.4719,0.193,0.3122,1.0521,0
2003/3/1 11:45,0.0053,0,0.001,0,0.1452,0.1931,0.3205,0.9975,0
2003/3/1 12:00,0.0052,0,0.0009,0,0.6611,0.2304,0.3112,1.0008,0
2003/3/1 12:15,0.0052,0,0.0003,0,0.3754,0.1927,0.3185,0.9907,0
2003/3/1 12:30,0.005,0,0.0007,0,0.6611,0.1904,0.3106,0.9752,0
2003/3/1 12:45,0.0052,0,0.0003,0,0.7073,0.1927,0.3185,1.075,0
2003/3/1 13:00,0.005,0,0.0003,0,0.9272,0.1918,0.3138,0.9822,0
2003/3/1 13:15,0.0052,0,0.0006,0,0.5413,0.1924,0.3182,0.9792,0
2003/3/1 13:30,0.0052,0,0.0006,0,0.5426,0.1918,0.3146,0.9818,0
2003/3/1 13:45,0.005,0,0.0003,0,0.5669,0.1921,0.3224,1.05,0
2003/3/1 14:00,0.0052,0,0,0,0.2146,0.1921,0.3156,0.9995,0
2003/3/1 14:15,0.0052,0,0.0017,0,0.5446,0.192,0.3198,0.9763,0
2003/3/1 14:30,0.005,0,0.0006,0,0.3326,0.1921,0.3159,0.9896,0
2003/3/1 14:45,0.0052,0,0.0003,0,0.6614,0.1914,0.3181,1.0732,0
2003/3/1 15:00,0.0052,0,0.0448,0,0.2007,0.1925,0.4054,1.1948,0
2003/3/1 15:15,1.7901,0,0.4565,0,0.5121,2.3512,0.341,-0.8902,0
2003/3/1 15:30,1.2648,0,0.4349,0,0.4139,1.9012,0.3288,-0.3396,0
2003/3/1 15:45,0.9896,0,0.5424,0,0.4651,1.4488,0.3211,0.1414,0
2003/3/1 16:00,0.9396,0,0.4153,0,0.2811,1.3452,0.3588,0.0681,0
2003/3/1 16:15,0.8427,0,0.4136,0,0.4087,1.4178,0.3987,0.2231,0
2003/3/1 16:30,0.869,0,0.4113,0,0.5878,1.4626,0.3312,0.1012,0
2003/3/1 16:45,0.8621,0,0.4123,0,0.1564,1.4916,0.3188,0.0708,0
2003/3/1 17:00,0.7799,0,0.41,0,0.5963,1.3706,0.3221,0.1895,0
2003/3/1 17:15,0.2205,0,0.5498,0,0.3357,0.6009,0.3254,0.8374,0
2003/3/1 17:30,0.005,0,0.7489,0,0.5399,0.2697,0.3171,1.1546,0
2003/3/1 17:45,0.005,0,0.645,0,0.2143,0.4248,0.3289,1.1246,0
2003/3/1 18:00,0.4833,0,0.7102,0.9618,0.5164,0.9465,0.3169,0.9815,0
2003/3/1 18:15,1.2432,0,0.6949,2.124,0.502,1.9025,0.3171,0.3116,0
2003/3/1 18:30,0.828,0,0.6888,0.3371,0.3146,1.443,0.3187,0.4308,0
2003/3/1 18:45,0.7847,0,0.7063,0.3776,0.4657,1.3802,0.3188,0.3552,0
2003/3/1 19:00,0.7661,0,0.5128,0.0261,0.3365,1.3764,0.3403,0.2968,0
2003/3/1 19:15,0.7574,0,0.4808,0.0259,0.6828,1.3306,0.4136,0.1516,0
2003/3/1 19:30,0.72,0,0.5,0.0261,0.201,1.3003,0.2264,0.248,0
2003/3/1 19:45,0.6034,0,0.4802,0.0264,0.4632,1.1467,0.4065,0.4677,0
2003/3/1 20:00,0.6224,0,0.4818,0.0302,0.56,1.1769,0.3086,0.3928,0
2003/3/1 20:15,0.6566,0,0.4817,0.0959,0.3416,1.2152,0.3122,0.3397,0
2003/3/1 20:30,0.5617,0,0.4795,0.0981,0.5269,1.0882,0.3046,0.4306,0
2003/3/1 20:45,0.5659,0,0.4788,0.0976,0.2199,1.1156,0.3106,0.4995,0
2003/3/1 21:00,0.7147,0,0.6847,0.11,0.6204,1.3261,0.3106,0.2714,0
2003/3/1 21:15,0.5725,0,0.8824,0.1073,0.5316,1.1124,0.31,0.4144,0
2003/3/1 21:30,0.5599,0,0.739,0.1017,0.376,1.0853,0.3061,0.3871,0
2003/3/1 21:45,0.6515,0,0.4563,0.1128,0.4974,1.1784,0.3093,0.2897,0
2003/3/1 22:00,0.5904,0,0.544,0.1048,0.3544,1.1075,0.3167,0.3905,0
2003/3/1 22:15,0.5492,0,0.5014,0.1008,0.5626,1.121,0.3177,0.4205,0
2003/3/1 22:30,0.5488,0,0.6178,0.1061,0.5514,1.118,0.3172,0.3923,0
2003/3/1 22:45,0.5482,0,0.6683,0.1103,0.1598,1.0912,0.3184,0.4084,0
2003/3/1 23:00,0.6049,0,0.7299,0.103,0.6146,1.1601,0.3144,0.3253,0
2003/3/1 23:15,0.6214,0,1.1792,0.1119,0.4667,1.2083,0.3161,0.1927,0
2003/3/1 23:30,0.5496,0,0.5835,0.0971,0.4476,1.1444,0.3151,0.0186,0
2003/3/1 23:45,0.5449,0,1.0407,0.114,0.6323,1.12,0.3241,0.0042,0
2003/3/2 0:00,0.5432,0,0.8559,0.107,0.1087,1.1254,0.3901,0.0127,0
2003/3/2 0:15,0.5456,0,0.6438,0.1008,0.5944,1.1218,0.2176,0.0684,0
2003/3/2 0:30,0.5456,0,0.643,0.1112,0.5928,1.1288,0.3972,0.0949,0
2003/3/2 0:45,0.5515,0,0.642,0.1083,0.4411,1.1112,0.2174,0.0373,0
2003/3/2 1:00,0.412,0,0.4681,0.114,0.8731,0.8463,0.392,0.1636,0
2003/3/2 1:15,0.0049,0,0.0946,0.1066,0.8088,0.1905,0.2167,0.5066,0
2003/3/2 1:30,0.005,0,0.0948,0.1051,0.7371,0.1915,0.3079,0.5432,0
2003/3/2 1:45,0.0052,0,0.0958,0.1161,0.6754,0.1925,0.3757,0.5295,0
2003/3/2 2:00,0.005,0,0.0959,0.1022,0.3884,0.1908,0.2177,0.5417,0
2003/3/2 2:15,0.005,0,0.0966,0.1125,0.7389,0.1909,0.3116,0.5344,0
2003/3/2 2:30,0.0052,0,0.0971,0.1165,0.326,0.1915,0.3037,0.5456,0
2003/3/2 2:45,0.005,0,0.0969,0.1009,0.3025,0.1905,0.3118,0.5255,0
2003/3/2 3:00,0.005,0,0.096,0.1162,0.5931,0.1895,0.3027,0.5044,0
2003/3/2 3:15,0.0049,0,0.0966,0.1128,0.3102,0.1904,0.309,0.5332,0
2003/3/2 3:30,0.005,0,0.0969,0.1087,0.6669,0.1905,0.305,0.5252,0
2003/3/2 3:45,0.005,0,0.0981,0.1132,0.2759,0.1911,0.3048,0.5152,0
2003/3/2 4:00,0.005,0,0.0992,0.1129,0.3156,0.1915,0.3079,0.5145,0
2003/3/2 4:15,0.005,0,0.0989,0.1064,0.5507,0.1921,0.3072,0.5152,0
2003/3/2 4:30,0.0052,0,0.102,0.114,0.3699,0.192,0.3066,0.5494,0
2003/3/2 4:45,0.005,0,0.1083,0.1165,0.7039,0.192,0.3089,0.5111,0
2003/3/2 5:00,0.005,0,0.1018,0.1164,0.163,0.1921,0.3083,0.54,0
2003/3/2 5:15,0.0052,0,0.1058,0.1041,0.472,0.1911,0.309,0.5134,0
2003/3/2 5:30,0.005,0,0.1051,0.1172,0.5028,0.1917,0.3077,0.5394,0
2003/3/2 5:45,0.005,0,0.1089,0.1123,0.4144,0.1914,0.306,0.5188,0
2003/3/2 6:00,0.005,0,0.1113,0.1151,0.4879,0.1907,0.3096,0.519,0
2003/3/2 6:15,0.0049,0,0.107,0.1104,0.2071,0.1905,0.305,0.503,0
2003/3/2 6:30,0.005,0,0.104,0.1195,0.6584,0.1886,0.307,0.5132,0
2003/3/2 6:45,0.0049,0,0.1021,0.109,0.357,0.1876,0.306,0.525,0
2003/3/2 7:00,0.0049,0,0.0972,0.1188,0.3442,0.3859,0.3082,1.4855,0
2003/3/2 7:15,0.005,0,0.0972,0.1058,0.4162,0.5437,0.3118,1.5222,0
2003/3/2 7:30,0.0049,0,0.181,0.1133,0.3734,0.5535,0.4787,1.4537,0
2003/3/2 7:45,0.005,0,0.1004,1.3267,0.7099,0.5604,0.4297,1.642,0
2003/3/2 8:00,0.0049,0,0.0973,0.0975,0.3872,0.6144,0.2346,1.2858,0
2003/3/2 8:15,0.0049,0,0.1227,0.8794,0.5675,0.6216,0.7344,0.9179,0
2003/3/2 8:30,0.005,0,0.1123,0.7836,0.5656,0.5917,0.4909,0.8411,0
2003/3/2 8:45,0.0049,0,0.1022,0.3686,0.2055,0.5885,0.7757,0.5217,0
2003/3/2 9:00,0.005,0,0.1058,0.0996,0.68,0.5724,0.2153,0.503,0
2003/3/2 9:15,0.005,0,0.1388,0.1126,0.4729,0.6068,0.8188,0.5459,0
2003/3/2 9:30,0.0052,0,0.1066,0.1119,0.3375,0.3288,0.3002,0.4764,0
2003/3/2 9:45,0.005,0,0.0933,0.1018,0.4908,0.5675,0.6189,0.4346,0
2003/3/2 10:00,0.005,0,0.0317,0.1151,0.3082,0.258,0.6283,0.4373,0
2003/3/2 10:15,0.0052,0,0.0102,0.1007,0.599,0.2569,0.3934,0.4805,0
2003/3/2 10:30,0.005,0,0.4523,0.111,0.5485,0.4268,0.2225,0.4974,0
2003/3/2 10:45,0.005,0,0.0773,0.1109,0.267,0.7076,0.456,0.4846,0
2003/3/2 11:00,0.005,0,0.0446,0.107,0.5139,0.7078,0.2861,0.4821,0
2003/3/2 11:15,0.005,0,0.0027,0.1008,0.4085,0.3018,0.3041,2.2909,0
2003/3/2 11:30,0.005,0,1.6239,0.1125,0.5122,0.2236,0.3,0.7253,0
2003/3/2 11:45,0.0049,0,0.3069,0.1128,0.5723,0.577,0.2985,0.4761,0
2003/3/2 12:00,0.0049,0,0,0.0991,0.177,0.5718,0.5736,0.4631,0
2003/3/2 12:15,0.005,0,0,0.9619,0.5772,0.5648,0.2964,0.5792,0
2003/3/2 12:30,0.005,0,0,0,0.5602,0.5851,0.308,0.4837,0
2003/3/2 12:45,0.0049,0,0,0,0.4776,0.5869,0.2969,0.4771,0
2003/3/2 13:00,0.005,0,0,0,0.7917,0.6173,0.2992,0.4949,0
2003/3/2 13:15,0.0049,0,0,0,0.8179,0.6751,0.2969,0.466,0
2003/3/2 13:30,0.005,0,0.0294,0,0.7557,0.6614,0.2998,0.4712,0
2003/3/2 13:45,0.005,0,0,0,0.8127,0.6542,0.3073,0.4506,0
2003/3/2 14:00,0.005,0,0,0,0.4032,0.6529,0.3152,0.4635,0
2003/3/2 14:15,0.005,0,0,0,0.6382,0.4329,0.5911,0.4857,0
2003/3/2 14:30,0.0052,0,0,0,0.6463,0.2756,0.2249,0.4792,0
2003/3/2 14:45,0.005,0,0,0,0.1822,0.2735,0.4118,0.4725,0
2003/3/2 15:00,0.005,0,0,0,0.5757,0.2697,0.2218,0.4785,0
2003/3/2 15:15,0.005,0,0,0,0.6869,0.2677,0.3859,0.4787,0
2003/3/2 15:30,0.005,0,0,0,0.3483,0.2686,0.2196,0.4644,0
2003/3/2 15:45,0.005,0,0,0,0.3881,0.2681,0.4029,0.4596,0
2003/3/2 16:00,0.0049,0,0,0,0.6948,0.2693,0.2212,0.4608,0
2003/3/2 16:15,0.005,0,0,0,0.4065,0.2693,0.3983,0.4909,0
2003/3/2 16:30,0.005,0,0,0,0.4634,0.2691,0.2199,0.4709,0
2003/3/2 16:45,0.0049,0,0,0,0.5435,0.2701,0.4022,0.4789,0
2003/3/2 17:00,0.005,0,0,0,0.4272,0.2697,0.22,0.4768,0
2003/3/2 17:15,0.0049,0,0,0,0.4722,0.2696,0.2199,0.4709,0
2003/3/2 17:30,0.005,0,0,0,0.6434,0.2681,0.3993,0.4828,0
2003/3/2 17:45,0.005,0,0.0027,0,0.2753,0.2684,0.2195,0.4967,0
2003/3/2 18:00,0.005,0,0.0033,0,0.4956,0.23,0.3947,0.4967,0
2003/3/2 18:15,0.005,0,0.0036,0,0.6991,0.1882,0.221,0.5124,0
2003/3/2 18:30,0.0049,0,0.0032,0,0.3167,0.1881,0.3912,0.5147,0
2003/3/2 18:45,0.005,0,0.0037,0,0.3984,0.1875,0.2206,0.4902,0
2003/3/2 19:00,0.005,0,0.0046,0,0.6693,0.2268,0.3946,0.5367,0
2003/3/2 19:15,0.005,0,0.0073,0,0.3099,0.1901,0.2226,0.5145,0
2003/3/2 19:30,0.0052,0,0.0089,0,0.5391,0.1896,0.3089,0.4965,0
2003/3/2 19:45,0.005,0,0.0089,0,0.4123,0.1904,0.3139,0.5139,0
2003/3/2 20:00,0.0052,0,0.0096,0,0.2958,0.1889,0.309,0.5196,0
2003/3/2 20:15,0.005,0,0.0219,0,0.4841,0.1904,0.3113,0.5134,0
2003/3/2 20:30,0.0052,0,0.0242,0,0.4815,0.1902,0.3135,0.4726,0
2003/3/2 20:45,0.005,0,0.017,0,0.4336,0.1909,0.3079,0.4877,0
2003/3/2 21:00,0.0052,0,0.0226,0,0.6408,0.1914,0.3181,0.4945,0
2003/3/2 21:15,0.0052,0,0.0228,0,0.1869,0.1912,0.3027,0.4913,0
2003/3/2 21:30,0.0052,0,0.0327,0,0.5815,0.1907,0.2231,0.4948,0
2003/3/2 21:45,0.005,0,1.0041,0,0.5878,0.2483,0.4209,1.1943,0
2003/3/2 22:00,0.005,0,0.9857,0,0.3156,0.5301,0.2104,1.0958,0
2003/3/2 22:15,0.0049,0,1.0162,0,0.5805,0.5387,0.3836,1.0119,0
2003/3/2 22:30,0.0049,0,0.6432,0,0.3005,0.5122,0.2081,0.96,0
2003/3/2 22:45,0.0049,0,0.4085,0,0.5376,0.5113,0.3839,1.0172,0
2003/3/2 23:00,0.005,0,0.6343,0,0.6404,0.5492,0.2075,0.9049,0
2003/3/2 23:15,0.005,0,0.6614,0,0.0973,0.269,0.3676,1.0878,0
2003/3/2 23:30,0.005,0,0.6879,0,0.6396,0.1921,0.2192,1.0814,0
2003/3/2 23:45,0.005,0,0.3688,0,0.5325,0.5066,0.2974,0.9553,0
2003/3/3 0:00,0.005,0,0.319,0,0.414,0.2974,0.2926,0.9655,0
2003/3/3 0:15,0.005,0,0,0,0.723,0.1915,0.2868,0.9593,0
2003/3/3 0:30,0.005,0,0,0,0.6702,0.1886,0.294,0.9491,0
2003/3/3 0:45,0.005,0,0,0,0.9448,0.1895,0.2969,1.029,0
2003/3/3 1:00,0.005,0,0,0,0.662,0.1909,0.2991,1.026,0
2003/3/3 1:15,0.0052,0,0,0,0.4118,0.1915,0.2105,0.9851,0
2003/3/3 1:30,0.0049,0,0,0,0.7386,0.1863,0.3822,0.9374,0
2003/3/3 1:45,0.0049,0,0,0,0.184,0.1873,0.2065,0.9395,0
2003/3/3 2:00,0.005,0,0,0,0.5279,0.1873,0.2943,0.9415,0
2003/3/3 2:15,0.0049,0,0.0001,0,0.5803,0.1882,0.2961,0.9711,0
2003/3/3 2:30,0.0049,0,0.0006,0,0.2943,0.1886,0.2955,1.0012,0
2003/3/3 2:45,0.005,0,0.0032,0,0.6719,0.1891,0.2946,0.9302,0
2003/3/3 3:00,0.005,0,0.0019,0,0.434,0.1898,0.2994,0.9418,0
2003/3/3 3:15,0.005,0,0.0105,0,0.5331,0.1902,0.3021,0.9459,0
2003/3/3 3:30,0.005,0,0.0158,0,0.3059,0.1918,0.2989,0.9734,0
2003/3/3 3:45,0.005,0,0.0148,0,0.3501,0.192,0.308,0.9844,0
2003/3/3 4:00,0.005,0,0.0181,0,0.6972,0.1902,0.211,0.9467,0
2003/3/3 4:15,0.0049,0,0.0207,0,0.3169,0.1895,0.3862,0.9557,0
2003/3/3 4:30,0.005,0,0.0219,0,0.4411,0.1899,0.2131,0.9639,0
2003/3/3 4:45,0.005,0,0.0183,0,0.3341,0.1904,0.2964,0.9737,0
2003/3/3 5:00,0.0049,0,0.0246,0,0.487,0.1886,0.3018,0.988,0
2003/3/3 5:15,0.005,0,0.0272,0,0.571,0.1881,0.303,0.9302,0
2003/3/3 5:30,0.0049,0,0.0281,0,0.1544,0.1888,0.3017,0.9112,0
2003/3/3 5:45,0.0049,0,0.0324,0,0.6068,0.1876,0.2972,0.9058,0
2003/3/3 6:00,0.0049,0,0.3565,0,0.341,0.3855,0.3158,1.3627,0
2003/3/3 6:15,0.0049,0,0.7098,0.4933,0.5859,0.5535,0.3996,6.1309,0
2003/3/3 6:30,0.0049,0,0.3531,0.0517,0.4873,0.4519,0.4579,1.4681,0
2003/3/3 6:45,0.0048,0,0,0,0.4677,0.1835,0.402,0.9912,0
2003/3/3 7:00,0.005,0,0,0,0.5118,0.2267,0.2163,0.9818,0
2003/3/3 7:15,0.0049,0,0.0003,0,0.1848,0.1871,0.3872,0.9467,0
2003/3/3 7:30,0.005,0,0.0012,0,0.6551,0.1868,0.3197,0.9828,0
2003/3/3 7:45,0.0049,0,0.0216,0,0.4236,0.1873,0.7364,1.0073,0
2003/3/3 8:00,0.005,0,0,0,0.3812,0.1896,0.2164,1.0155,0
2003/3/3 8:15,0.0052,0,0,0,0.3669,0.1886,0.3966,0.9883,0
2003/3/3 8:30,0.005,0,0.0212,0,0.3522,0.1892,0.7235,0.9235,0
2003/3/3 8:45,0.005,0,0.0197,0.9022,0.6947,0.4069,1.0886,0.5842,0
2003/3/3 9:00,0.005,0,0.0837,0,0.3046,0.5602,0.9141,0.4296,0
2003/3/3 9:15,0.0049,0,0.665,0,0.5524,0.557,0.3901,0.4513,0
2003/3/3 9:30,0.005,0,0.0799,0,0.5687,0.5632,0.2159,0.4615,0
2003/3/3 9:45,0.005,0,0.0131,0,0.2161,0.544,0.3947,0.468,0
2003/3/3 10:00,0.005,0,0.0098,0,0.5492,0.1891,0.215,0.4683,0
2003/3/3 10:15,0.0052,0,0.6863,0,0.3316,0.1879,0.4095,2.1217,0
2003/3/3 10:30,0.0052,0,0.3534,0,0.629,0.2511,0.2994,0.4673,0
2003/3/3 10:45,0.005,0,0,0,0.321,0.2798,0.3089,0.4352,0
2003/3/3 11:00,0.005,0,0.0003,0,0.3067,0.2782,0.3079,0.413,0
2003/3/3 11:15,0.0052,0,0,0,0.6712,0.2759,0.3056,0.4208,0
2003/3/3 11:30,0.005,0,0,0,0.3357,0.274,0.302,0.4285,0
2003/3/3 11:45,0.005,0,0,0,0.689,0.2732,0.3037,0.4334,0
2003/3/3 12:00,0.005,0,0,0,0.7957,0.3001,0.2997,0.437,0
2003/3/3 12:15,0.0052,0,0,0,0.8562,0.2259,0.3066,0.4637,0
2003/3/3 12:30,0.005,0,0,0,0.7809,0.3718,0.3054,0.4765,0
2003/3/3 12:45,0.0052,0,0,0,0.41,0.1912,0.2982,0.4605,0
2003/3/3 13:00,0.0052,0,0,0,0.6444,0.1907,0.3178,0.4817,0
2003/3/3 13:15,0.005,0,0,0,0.4445,0.1889,0.3731,0.452,0
2003/3/3 13:30,0.005,0,0,0,0.2039,0.1868,0.2285,0.4903,0
2003/3/3 13:45,0.005,0,0,0,0.7076,0.1865,0.2857,0.4681,0
2003/3/3 14:00,0.005,0,0,0,0.3815,0.1856,0.2964,0.4501,0
2003/3/3 14:15,0.005,0,0,0,0.3584,0.1856,0.2961,0.48,0
2003/3/3 14:30,0.005,0,0,0,0.5797,0.1869,0.3021,0.4668,0
2003/3/3 14:45,0.005,0,0,0,0.3266,0.1868,0.2968,0.4615,0
2003/3/3 15:00,0.005,0,0,0,0.6654,0.1868,0.2975,0.466,0
2003/3/3 15:15,0.005,0,0.0274,0,0.2781,0.1862,0.2926,0.4978,0
2003/3/3 15:30,0.0049,0,0,0,0.3894,0.1872,0.3385,0.4762,0
2003/3/3 15:45,0.005,0,0.0108,0,0.5118,0.3076,0.3211,0.5626,0
2003/3/3 16:00,0.005,0,0,0,0.292,0.1899,0.3061,0.5028,0
2003/3/3 16:15,0.005,0,0,0,0.5796,0.1889,0.311,0.4967,0
2003/3/3 16:30,0.005,0,0,0,0.5543,0.1884,0.3038,0.4915,0
2003/3/3 16:45,0.005,0,0.0095,0,0.1974,0.1895,0.301,0.5004,0
2003/3/3 17:00,0.005,0,0.0101,0,0.5882,0.1881,0.301,0.5016,0
2003/3/3 17:15,0.005,0,0.0046,0,0.4183,0.1881,0.2981,0.5357,0
2003/3/3 17:30,0.0052,0,0.0073,0,0.4396,0.1912,0.305,0.4929,0
2003/3/3 17:45,0.0052,0,0.0062,0,0.451,0.1918,0.3014,0.4903,0
2003/3/3 18:00,0.0052,0,0.0026,0,0.3064,0.1921,0.2125,0.521,0
2003/3/3 18:15,0.0052,0,0.0138,0,0.6525,0.1914,0.3938,0.5086,0
2003/3/3 18:30,0.005,0,0.1136,0,0.4255,0.2156,0.2134,0.5227,0
2003/3/3 18:45,0.005,0,0.8663,0.1218,0.4222,0.5592,0.3937,0.5635,0
2003/3/3 19:00,1.7859,0,0.9069,0.1447,0.5347,2.4454,0.2147,-1.1969,0
2003/3/3 19:15,1.3687,0,0.7204,0.1454,0.1109,1.9793,0.4097,-0.8256,0
2003/3/3 19:30,1.0289,0,0.8728,0.1433,0.6104,1.5952,0.2241,0.2781,0
2003/3/3 19:45,1.0176,0,0.8761,0.0363,0.5476,1.5869,0.3914,-0.0114,0
2003/3/3 20:00,0.8793,0,0.8549,0,0.3832,1.445,0.2133,0.1025,0
2003/3/3 20:15,0.8761,0,0.6718,0,0.7008,1.4236,0.3931,0.1122,0
2003/3/3 20:30,0.7525,0,0.6405,0,0.2022,1.2905,0.2134,0.1273,0
2003/3/3 20:45,0.7147,0,0.6372,0,0.4008,1.3555,0.3918,0.2526,0
2003/3/3 21:00,0.7524,0,0.636,0,0.6791,1.3982,0.2115,0.2352,0
2003/3/3 21:15,0.7394,0,0.6362,0,0.3123,1.3376,0.3015,0.2261,0
2003/3/3 21:30,0.5916,0,0.6332,0,0.6381,1.1638,0.2955,0.4172,0
2003/3/3 21:45,0.7337,0,0.6312,0,0.3542,1.298,0.2971,0.1984,0
2003/3/3 22:00,0.63,0,0.8509,0,0.2575,1.1784,0.2978,0.3396,0
2003/3/3 22:15,0.7026,0,1.2136,0,0.732,1.2493,0.2979,0.2929,0
2003/3/3 22:30,0.7358,0,1.4904,0,0.4536,1.3205,0.2952,0.2323,0
2003/3/3 22:45,0.5956,0,0.789,0,0.4474,1.1892,0.2088,0.3735,0
2003/3/3 23:00,0.7145,0,0.5426,0,0.5314,1.5237,0.3892,0.5184,0
2003/3/3 23:15,0.6178,0,1.0272,0,0.433,1.2118,0.211,0.3701,0
2003/3/3 23:30,0.6625,0,0.9616,0,0.573,1.258,0.4274,0.1974,0
2003/3/3 23:45,0.005,0,0.5808,0,0.7445,0.506,0.2101,1.082,0
2003/3/4 0:00,0.0049,0,0.4494,0,0.6456,0.4317,0.395,1.0365,0
2003/3/4 0:15,0.005,0,0,0,0.9704,0.1914,0.2107,0.9711,0
2003/3/4 0:30,0.0052,0,0,0,0.7013,0.1912,0.3871,0.9664,0
2003/3/4 0:45,0.005,0,0,0,0.4038,0.1908,0.2108,0.968,0
2003/3/4 1:00,0.005,0,0,0,0.7295,0.1909,0.3764,0.9278,0
2003/3/4 1:15,0.0052,0,0,0,0.3754,0.1914,0.2111,0.9992,0
2003/3/4 1:30,0.005,0,0,0,0.3545,0.1921,0.3084,0.9899,0
2003/3/4 1:45,0.005,0,0,0,0.697,0.1909,0.2946,0.9667,0
2003/3/4 2:00,0.005,0,0,0,0.3345,0.1902,0.3061,0.951,0
2003/3/4 2:15,0.005,0,0.0001,0,0.4101,0.1895,0.2936,0.9652,0
2003/3/4 2:30,0.0049,0,0,0,0.5151,0.1886,0.2968,0.9461,0
2003/3/4 2:45,0.005,0,0.0003,0,0.3339,0.1889,0.3008,0.9367,0
2003/3/4 3:00,0.005,0,0.0022,0,0.6761,0.1892,0.3005,0.9988,0
2003/3/4 3:15,0.005,0,0.0009,0,0.3528,0.1899,0.301,0.9966,0
2003/3/4 3:30,0.0049,0,0.0012,0,0.5646,0.1901,0.2125,0.9586,0
2003/3/4 3:45,0.005,0,0.001,0,0.5848,0.1902,0.3033,0.9439,0
2003/3/4 4:00,0.005,0,0,0,0.1066,0.1908,0.3056,0.9481,0
2003/3/4 4:15,0.005,0,0.002,0,0.6621,0.1908,0.3036,0.9664,0
2003/3/4 4:30,0.005,0,0.0037,0,0.3944,0.1905,0.3021,1.0054,0
2003/3/4 4:45,0.005,0,0.0033,0,0.5237,0.1904,0.3025,0.9616,0
2003/3/4 5:00,0.005,0,0.0048,0,0.3869,0.1892,0.304,0.9613,0
2003/3/4 5:15,0.005,0,0.0095,0,0.2323,0.1888,0.3113,0.9472,0
2003/3/4 5:30,0.0049,0,0.0108,0,0.7236,0.1868,0.2972,0.9014,0
2003/3/4 5:45,0.0049,0,0.0166,0,0.2938,0.1881,0.3056,1.0096,0
2003/3/4 6:00,0.0049,0,0.2814,0,0.4562,0.3636,0.3007,1.3035,0
2003/3/4 6:15,0.0049,0,0.8869,0.5239,0.3734,0.5423,0.3466,5.1395,0
2003/3/4 6:30,0.0048,0,0.4827,0,0.4385,0.5086,0.47,1.9958,0
2003/3/4 6:45,0.005,0,0,0,0.6941,0.1888,0.3298,0.9762,0
2003/3/4 7:00,0.0049,0,0,0,0.186,0.2268,0.3057,0.9888,0
2003/3/4 7:15,0.0049,0,0,0,0.4753,0.1873,0.3102,1.0071,0
2003/3/4 7:30,0.005,0,0,0,0.4992,0.1896,0.3138,0.9864,0
2003/3/4 7:45,0.0052,0,0.0004,0,0.4117,0.1901,0.3139,0.9984,0
2003/3/4 8:00,0.005,0,0.0624,0.0006,0.5868,0.1895,0.3102,0.9739,0
2003/3/4 8:15,0.0049,0,0.3691,0.0073,0.11,0.5489,0.3059,0.9127,0
2003/3/4 8:30,0.005,0,0.0088,0.0073,0.6473,0.561,0.3131,1.1403,0
2003/3/4 8:45,0.005,0,0.0006,0.0072,0.4213,0.5733,0.3194,0.901,0
2003/3/4 9:00,0.0049,0,0,0.0072,0.4956,0.5661,0.4755,4.0123,0
2003/3/4 9:15,0.005,0,0,0.0073,0.3619,0.2873,0.3529,0.9037,0
2003/3/4 9:30,0.0052,0,0,0.0073,0.2697,0.1911,0.4098,0.8722,0
2003/3/4 9:45,0.005,0,0.0001,0.0072,0.717,0.1908,0.2141,0.9688,0
2003/3/4 10:00,0.0052,0,0.0001,0.0073,0.3004,0.1911,0.3938,0.8912,0
2003/3/4 10:15,0.005,0,0,0.0073,0.3763,0.1894,0.213,0.8888,0
2003/3/4 10:30,0.005,0,0,0.0072,0.3997,0.1898,0.3966,0.8718,0
2003/3/4 10:45,0.005,0,0,0.0072,0.4347,0.1901,0.2991,0.8736,0
2003/3/4 11:00,0.005,0,0,0.0073,0.6345,0.1889,0.3014,0.9501,0
2003/3/4 11:15,0.005,0,0.0003,0.0072,0.3387,0.1895,0.3918,0.8967,0
2003/3/4 11:30,0.005,0,0,0.0072,0.904,0.1894,0.2146,0.8976,0
2003/3/4 11:45,0.005,0,0,0.0072,0.8744,0.1894,0.3856,0.8715,0
2003/3/4 12:00,0.005,0,0.0003,0.0073,0.564,0.2197,0.2148,0.8522,0
2003/3/4 12:15,0.0052,0,0.0003,0.0073,0.6987,0.1912,0.3881,0.9001,0
2003/3/4 12:30,0.005,0,0.0003,0.0073,0.3599,0.1917,0.2131,0.935,0
2003/3/4 12:45,0.0052,0,0.0009,0.0075,0.6693,0.1917,0.397,0.8672,0
2003/3/4 13:00,0.005,0,0,0.0072,0.1937,0.1884,0.2133,0.8724,0
2003/3/4 13:15,0.005,0,0,0.0072,0.4918,0.1895,0.3921,0.8909,0
2003/3/4 13:30,0.005,0,0.0003,0.0073,0.613,0.1896,0.2154,0.8796,0
2003/3/4 13:45,0.005,0,0,0.0072,0.2884,0.1881,0.394,0.9467,0
2003/3/4 14:00,0.005,0,0.0004,0.0073,0.6582,0.1886,0.2133,0.9122,0
2003/3/4 14:15,0.005,0,0.0006,0.0072,0.2176,0.1898,0.3925,0.864,0
2003/3/4 14:30,0.0052,0,0.0003,0.0073,0.3997,0.1901,0.2138,0.8696,0
2003/3/4 14:45,0.005,0,0,0.0073,0.6588,0.1894,0.3972,0.8771,0
2003/3/4 15:00,0.005,0,0.0003,0.0073,0.3239,0.1898,0.216,0.9537,0
2003/3/4 15:15,0.0052,0,0.0006,0.0073,0.663,0.1894,0.376,0.851,0
2003/3/4 15:30,0.005,0,0.0004,0.0073,0.276,0.1894,0.2313,0.9194,0
2003/3/4 15:45,0.005,0,0.0003,0.0073,0.3576,0.1894,0.3987,0.8686,0
2003/3/4 16:00,0.0052,0,0,0.0072,0.6941,0.1895,0.2133,0.9245,0
2003/3/4 16:15,0.005,0,0,0.0073,0.3244,0.1901,0.308,0.9357,0
2003/3/4 16:30,0.005,0,0,0.0073,0.627,0.1907,0.3023,0.8561,0
2003/3/4 16:45,0.0052,0,0,0.0073,0.2809,0.1911,0.3021,0.8886,0
2003/3/4 17:00,0.005,0,0,0.72,0.3529,0.1901,0.2985,0.9029,0
2003/3/4 17:15,0.0049,0,0,1.0472,0.6856,0.1886,0.3073,0.9284,0
2003/3/4 17:30,0.005,0,0.0027,0.2087,0.2902,0.1884,0.3024,0.9168,0
2003/3/4 17:45,0.005,0,0.0292,0.037,0.5242,0.1879,0.3,0.8807,0
2003/3/4 18:00,0.0049,0,0.0341,0.0259,0.2258,0.1892,0.304,0.8806,0
2003/3/4 18:15,0.0052,0,0.0389,0.0258,0.4798,0.1909,0.3059,0.8842,0
2003/3/4 18:30,0.005,0,0.1604,0.0588,0.5901,0.1898,0.2992,1.0328,0
2003/3/4 18:45,0.005,0,1.0214,0.1107,0.2853,0.1892,0.3053,1.2324,0
2003/3/4 19:00,1.8641,0,0.9436,0.113,0.5134,2.5135,0.3017,-0.8376,0
2003/3/4 19:15,1.2622,0,1.436,0.1155,0.2392,1.8598,0.4005,-0.3564,0
2003/3/4 19:30,1.0018,0,1.419,0.1115,0.5878,1.607,0.4012,-0.0691,0
2003/3/4 19:45,0.9933,0,1.0032,0.1071,0.5016,1.5106,0.2173,0.1924,0
2003/3/4 20:00,0.8934,0,0.6985,0.1092,0.2612,1.1506,0.3923,0.1165,0
2003/3/4 20:15,0.8474,0,0.6987,0.1126,0.5301,1.1592,0.3073,0.0867,0
2003/3/4 20:30,0.9451,0,0.6988,0.1089,0.3372,1.2236,0.3018,0.0743,0
2003/3/4 20:45,0.7972,0,1.22,0.1125,0.6322,1.344,0.309,0.4562,0
2003/3/4 21:00,0.7881,0,0.9039,0.1156,0.3456,1.464,0.3059,0.1191,0
2003/3/4 21:15,0.7888,0,0.5263,0.1119,0.5763,1.4337,0.3109,0.2166,0
2003/3/4 21:30,0.7517,0,0.4098,0.1158,0.4775,1.3804,0.3061,0.1833,0
2003/3/4 21:45,0.7296,0,0.409,0.1076,0.177,1.3762,0.3017,0.2229,0
2003/3/4 22:00,0.6781,0,0.7219,0.1076,0.6258,1.2768,0.361,0.2912,0
2003/3/4 22:15,0.6211,0,1.4607,0.1057,0.3423,1.19,0.2511,0.2956,0